Regional Weather Roundup
Issued by NWS Upton, NY

Current Version | Previous Version | Graphics & Text | Print | Product List | Glossary Off
Versions: 1 2 3 4 5 6 7 8 9 10 11 12 13 14 15 16 17 18 19 20 21 22 23 24 25 26 27 28

000
ASUS41 KOKX 271705
RWROKX

REGIONAL WEATHER ROUNDUP
NATIONAL WEATHER SERVICE NEW YORK NY
100 PM EDT FRI MAY 27 2016

NOTE: "FAIR" INDICATES FEW OR NO CLOUDS BELOW 12,000 FEET WITH NO
SIGNIFICANT WEATHER AND/OR OBSTRUCTIONS TO VISIBILITY.

NYZ071-072-176-178-NJZ106-104-271800-
NEW YORK CITY METRO AREA


CITY           SKY/WX    TMP DP  RH WIND       PRES   REMARKS
CENTRAL PARK   SUNNY     86  64  47 S5        30.07F
LAGUARDIA APRT MOSUNNY   86  70  58 S10       30.05F HX  90
KENNEDY INTL   MOSUNNY   75  63  66 S9        30.08F
NEWARK/LIBERTY PTSUNNY   87  65  47 SE9       30.04F
BRNX BOT. GARD   N/A     84  64  51 S13       30.07F
TETERBORO      SUNNY     86  63  45 S7        30.03F
$$

NYZ177-179-078>081-271800-
LONG ISLAND NEW YORK

CITY           SKY/WX    TMP DP  RH WIND       PRES   REMARKS
FARMINGDALE    SUNNY     77  65  66 SE8       30.08F
ISLIP          PTSUNNY   73  63  70 S9        30.08F
SHIRLEY        MOSUNNY   74  63  68 S9        30.10S
RIVERHEAD        N/A     81  66  61 CALM      30.08S
WESTHAMPTON    SUNNY     70  60  70 SW12      30.12R
EAST HAMPTON   FAIR      69  60  74 S13       30.10S
MONTAUK POINT    N/A     66  60  81 SW8       30.12S
$$

NYZ052-065-067-271800-
HUDSON VALLEY

CITY           SKY/WX    TMP DP  RH WIND       PRES   REMARKS
WHITE PLAINS   CLOUDY    83  66  56 S12       30.06F
NEWBURGH       PTSUNNY   82  70  65 VRB6      30.06F
MONTGOMERY     MOSUNNY   85  69  58 S5        30.03F
POUGHKEEPSIE   CLOUDY    86  67  52 E6        30.03F
ALBANY         PTSUNNY   82  63  52 S8        30.01F
$$

NJZ001-105-106-008-010-013-015-019>022-104-271800-
NEW JERSEY

CITY           SKY/WX    TMP DP  RH WIND       PRES   REMARKS
NEWARK/LIBERTY PTSUNNY   87  65  47 SE9       30.04F
TETERBORO      SUNNY     86  63  45 S7        30.03F
CALDWELL       MOSUNNY   87  64  46 VRB3      30.04F
MORRISTOWN     MOSUNNY   88  66  48 SW9G17    30.04F HX  90
SOMERVILLE     PTSUNNY   86  69  56 VRB6      30.02F HX  90
SUSSEX         SUNNY     86  65  49 W7G18     30.04F
ANDOVER          N/A     85  64  49 S8        30.05F
TRENTON        SUNNY     87  66  49 S16G22    30.05F
MILLVILLE      SUNNY     84  69  60 VRB3      30.08F
ATLANTIC CITY  SUNNY     85  67  54 S12       30.08S
WRIGHTSTOWN    MOSUNNY   88  67  48 W13       30.02F HX  91
TOMS RIVER     PTSUNNY   90  63  40 S10G23    30.05F HX  90
BELMAR         MOSUNNY   84  68  58 SE10G18   30.07F
$$

PAZ047>061-062-071-271800-
EASTERN PENNSYLVANIA

CITY           SKY/WX    TMP DP  RH WIND       PRES   REMARKS
PHILADELPHIA   MOSUNNY   86  66  51 S9        30.06F
ALLENTOWN      MOSUNNY   87  67  51 SW5       30.05S HX  90
SCRANTON       MOSUNNY   85  64  49 W10       30.05F
$$

CTZ002-004>006-009-010-012-RIZ004-006-007-MAZ004-011-015-271800-
SOUTHERN NEW ENGLAND
 IN CT

CITY           SKY/WX    TMP DP  RH WIND       PRES   REMARKS
BRADLEY INTL   CLOUDY    86  64  47 S10       30.04F
HARTFORD       CLOUDY    85  65  51 S7G17     30.05F
DANBURY        MOSUNNY   82  65  56 S8        30.07F
WTRBRY/OXFORD  PTSUNNY   81  64  57 SW7       30.10
BRIDGEPORT     CLOUDY    73  62  68 E10       30.07F
MERIDEN        CLOUDY    81  63  54 S9        30.07F
NEW HAVEN      CLOUDY    75  62  64 SE8       30.08S
CHESTER        FAIR      77  63  61 S7        30.09F
GROTON         CLOUDY    68  62  81 SE8       30.10S
WILLIMANTIC    CLOUDY    85  63  47 S10       30.07F

 IN RI

CITY           SKY/WX    TMP DP  RH WIND       PRES   REMARKS
PROVIDENCE     PTSUNNY   72  59  63 S12       30.09F
BLOCK ISLAND   PTSUNNY   65  59  81 SW18      30.11F
WESTERLY       CLOUDY    68  57  68 S8        30.11S

 IN MA

CITY           SKY/WX    TMP DP  RH WIND       PRES   REMARKS
BOSTON         CLOUDY    64  57  78 E13       30.09F
WORCESTER      CLOUDY    77  60  55 SE8       30.10F
WESTFIELD      CLOUDY    81  62  52 S6        30.05S
PROVINCETOWN   SUNNY     74  61  63 S10       30.09F
NANTUCKET      SUNNY     67  59  75 SW12      30.13S
$$

ANZ330-335-338-340-345-350-353-355-271800-
COASTAL MARINE OBSERVATIONS


STATION/POSITION TIME  SKY/WX   TEMP    WIND        PRES    VSBY  WAVE
                                AIR SEA DIR/SP/G                  HT/PER
                 (UTC)          (F)     (DEG/KT/KT) (MB)    (MI)  (FT/S)
NY HARB ENTRANCE 1550            62 61  180/ 10/ 12 1018.2          2/ 7
20S FIRE ISLAND  1550            61 60  190/ 10/ 12 1018.8          3/ 7
GREAT SOUTH BAY  1600            64 69  220/  8/ 10   N/A
23 SSW MONTAUK P 1650            59 57  200/ 12/ 14 1019.1          3/ 7
15 E BARNEGAT LI 1622               60                N/A           3/ 5
HUDSON CANYON    1550            60 57              1020.1          3/ 5
KINGS POINT      1600            72 60              1017.7
EXECUTION ROCKS  NOT AVBL
CENTRAL LI SOUND NOT AVBL
EASTERN LI SOUND 1600            60 54  130/  8/ 10   N/A
ROBBINS REEF     1600            67     180/ 15/ 16 1017.3
$$


>>>>>>>>>>>>>>>>>>>>>>>>>>>> KEY <<<<<<<<<<<<<<<<<<<<<<<<<<<
>                                                          <
>     SKY/WX - SKY CONDITION/PRESENT WEATHER               <
>     TMP    - TEMPERATURE IN FAHRENHEIT                   <
>     DP     - DEWPOINT IN FAHRENHEIT                      <
>     RH     - RELATIVE HUMIDITY IN PERCENT                <
>     WIND   - DIRECTION AND SPEED IN MPH                  <
>     PRES   - MEAN SEA LEVEL PRESSURE IN INCHES OF HG     <
>     WCI    - WIND CHILL INDEX                            <
>     VSB    - VISIBILITY IN MILES                         <
>     HX     - HEAT INDEX                                  <
>     TC     - TEMPERATURE IN CELSIUS                      <
>     VRB    - VARIABLE WIND DIRECTION                     <
>                                                          <
>>>>>>>>>>>>>>>>>>>>>>>>>>>> KEY <<<<<<<<<<<<<<<<<<<<<<<<<<<






USA.gov is the U.S. government's official web portal to all federal, state and local government web resources and services.